Buffalo, WY

8:17 PM MST on February 19, 2017 (GMT -0700)
Johnson County

Weather History for KBYG - February, 2014

Change the Weather History Date:

Thursday, February 27, 2014

  Actual Average Record
Temperature  
Mean Temperature 30 °F 30 °F  
Max Temperature 45 °F 41 °F 65 °F (2016)
Min Temperature 14 °F 19 °F -3 °F (2015)
Degree Days  
Heating Degree Days 35 35  
Month to date heating degree days 1250 999  
Since 1 July heating degree days 5197 5206  
Cooling Degree Days 0 0  
Month to date cooling degree days 0 0  
Year to date cooling degree days 0 0  
Moisture  
Dew Point 16 °F    
Average Humidity 52    
Maximum Humidity 70    
Minimum Humidity 33    
Precipitation  
Precipitation 0.00 in 0.01 in 0.01 in (2009)
Month to date precipitation 0.15 0.33  
Year to date precipitation 0.36 0.75  
Sea Level Pressure  
Sea Level Pressure 29.65 in    
Wind  
Wind Speed 6 mph (SW)    
Max Wind Speed 14 mph    
Max Gust Speed 18 mph    
Visibility 10 miles    
Events      
T = Trace of Precipitation, MM = Missing Value Source: NWS Daily Summary

Daily Weather History Graph

Daily Weather History Graph

Search for Another Location

Airport or City:

Trip Planner

Search our weather history database for the weather conditions in past years. The results will help you decide how hot, cold, wet, or windy it might be!

Date:

Astronomy

Feb. 27, 2014 Rise Set
Actual Time 6:47 AM MST 5:52 PM MST
Civil Twilight 6:18 AM MST 6:21 PM MST
Nautical Twilight 5:44 AM MST 6:55 PM MST
Astronomical Twilight 5:11 AM MST 7:28 PM MST
Moon 5:24 AM MST (2/27) 4:19 PM MST (2/27)
Length of Visible Light 12h 03m
Length of Day
11h 04m
Waning Crescent, 4% of the Moon is Illuminated
Feb 27
Waning Crescent
Mar 1
New
Mar 8
First Quarter
Mar 16
Full
Mar 23
Last Quarter

Hourly Weather History & Observations

Time (MST) Temp. Windchill Dew Point Humidity Pressure Visibility Wind Dir Wind Speed Gust Speed Precip Events Conditions
12:53 AM 18.0 °F 7.7 °F 3.0 °F 52% 29.89 in 10.0 mi South 8.1 mph - N/A   Clear
1:53 AM 19.9 °F 8.6 °F 3.0 °F 48% 29.86 in 10.0 mi SSW 10.4 mph - N/A   Clear
2:53 AM 21.0 °F 10.6 °F 3.0 °F 46% 29.83 in 10.0 mi SSW 9.2 mph - N/A   Clear
3:53 AM 21.9 °F 13.4 °F 1.9 °F 42% 29.79 in 10.0 mi SE 6.9 mph - N/A   Clear
4:53 AM 19.9 °F 10.1 °F 3.0 °F 48% 29.77 in 10.0 mi South 8.1 mph - N/A   Clear
5:53 AM 17.1 °F 10.0 °F 1.9 °F 52% 29.79 in 10.0 mi NW 4.6 mph - N/A   Clear
6:53 AM 24.1 °F 15.2 °F 5.0 °F 44% 29.75 in 10.0 mi West 8.1 mph - N/A   Clear
7:53 AM 27.0 °F - 8.1 °F 45% 29.73 in 10.0 mi North - - N/A   Partly Cloudy
8:53 AM 39.0 °F - 12.9 °F 34% 29.68 in 10.0 mi Calm Calm - N/A   Partly Cloudy
9:53 AM 37.0 °F 34.5 °F 17.1 °F 44% 29.65 in 10.0 mi SSE 3.5 mph - N/A   Mostly Cloudy
10:53 AM 43.0 °F - 15.1 °F 32% 29.63 in 10.0 mi Calm Calm - N/A   Scattered Clouds
11:53 AM 41.0 °F 39.0 °F 23.0 °F 49% 29.62 in 10.0 mi South 3.5 mph - N/A   Overcast
12:53 PM 43.0 °F 38.8 °F 21.9 °F 43% 29.57 in 10.0 mi SSE 6.9 mph - N/A   Overcast
1:53 PM 39.0 °F 34.8 °F 23.0 °F 53% 29.57 in 10.0 mi ENE 5.8 mph - N/A   Mostly Cloudy
2:53 PM 39.0 °F 35.7 °F 24.1 °F 55% 29.57 in 10.0 mi NW 4.6 mph - N/A   Mostly Cloudy
3:53 PM 43.0 °F - 24.1 °F 47% 29.53 in 10.0 mi Calm Calm - N/A   Overcast
4:53 PM 41.0 °F 39.0 °F 24.1 °F 51% 29.55 in 10.0 mi South 3.5 mph - N/A   Partly Cloudy
5:53 PM 36.0 °F 31.1 °F 26.1 °F 67% 29.58 in 10.0 mi North 5.8 mph - N/A   Mostly Cloudy
6:53 PM 33.1 °F 28.7 °F 23.0 °F 66% 29.58 in 10.0 mi West 4.6 mph - N/A   Clear
7:53 PM 30.9 °F 25.2 °F 19.9 °F 64% 29.57 in 10.0 mi West 5.8 mph - N/A   Clear
8:53 PM 30.9 °F 26.2 °F 19.9 °F 64% 29.53 in 10.0 mi West 4.6 mph - N/A   Partly Cloudy
9:53 PM 32.0 °F 25.6 °F 21.9 °F 66% 29.53 in 10.0 mi WSW 6.9 mph - N/A   Mostly Cloudy
10:53 PM 35.1 °F 29.3 °F 25.0 °F 67% 29.50 in 10.0 mi WSW 6.9 mph - N/A   Overcast
11:53 PM 37.9 °F 30.0 °F 27.0 °F 65% 29.51 in 10.0 mi NNW 12.7 mph - N/A   Overcast